Weather History for San Antonio, TX

Change the Weather History Date:

Tuesday, April 29, 2014

  Actual Average Record
Temperature  
Mean Temperature 75 °F 73 °F  
Max Temperature 88 °F 83 °F 98 °F (1909)
Min Temperature 61 °F 62 °F 46 °F (1965)
Degree Days  
Heating Degree Days 0 0  
Month to date heating degree days 40 38  
Since 1 July heating degree days 1562 1493  
Cooling Degree Days 10 8  
Month to date cooling degree days 231 161  
Year to date cooling degree days 357 252  
Growing Degree Days 24 (Base 50)    
Moisture  
Dew Point 35 °F    
Average Humidity 34    
Maximum Humidity 56    
Minimum Humidity 11    
Precipitation  
Precipitation 0.00 in 0.09 in 2.12 in (1919)
Month to date precipitation 0.68 2.01  
Year to date precipitation 2.39 7.87  
Snow  
Snow 0.00 in - - ()
Month to date snowfall 0.0  
Since 1 July snowfall 0.4  
Snow Depth 0.00 in    
Sea Level Pressure  
Sea Level Pressure 29.74 in    
Wind  
Wind Speed 13 mph (NNW)    
Max Wind Speed 28 mph    
Max Gust Speed 34 mph    
Visibility 10 miles    
Events      
T = Trace of Precipitation, MM = Missing Value Source: NWS Daily Summary

Daily Weather History Graph

Daily Weather History Graph

Search for Another Location

Airport:

Trip Planner

Search our weather history database for the weather conditions in past years. The results will help you decide how hot, cold, wet, or windy it might be!

Date:

Astronomy

Apr. 29, 2014 Rise Set
Actual Time 6:53 AM CDT 8:09 PM CDT
Civil Twilight 6:28 AM CDT 8:34 PM CDT
Nautical Twilight 5:58 AM CDT 9:04 PM CDT
Astronomical Twilight 5:27 AM CDT 9:35 PM CDT
Moon 7:12 AM CDT (4/29) 8:49 PM CDT (4/29)
Length of Visible Light 14h 06m
Length of Day
13h 15m
New Moon, 0% of the Moon is Illuminated
Apr 29
New Moon
May 6
First Quarter
May 14
Full
May 21
Last Quarter
May 28
New

Hourly Weather History & Observations

Time (CDT) Temp. Dew Point Humidity Pressure Visibility Wind Dir Wind Speed Gust Speed Precip Events Conditions
12:51 AM 71.1 °F 41.0 °F 34% 29.62 in 10.0 mi WNW 3.5 mph - N/A   Clear
1:51 AM 66.9 °F 43.0 °F 42% 29.63 in 10.0 mi NW 4.6 mph - N/A   Clear
2:51 AM 64.9 °F 42.1 °F 43% 29.62 in 10.0 mi NW 5.8 mph - N/A   Clear
3:51 AM 64.9 °F 43.0 °F 45% 29.61 in 10.0 mi WNW 5.8 mph - N/A   Clear
4:51 AM 62.1 °F 44.1 °F 52% 29.60 in 10.0 mi NW 3.5 mph - N/A   Clear
5:51 AM 62.1 °F 46.9 °F 58% 29.61 in 10.0 mi NNW 6.9 mph - N/A   Clear
6:51 AM 68.0 °F 48.9 °F 50% 29.65 in 10.0 mi NW 6.9 mph - N/A   Clear
7:51 AM 70.0 °F 46.9 °F 44% 29.67 in 10.0 mi NNW 8.1 mph - N/A   Clear
8:51 AM 73.0 °F 33.1 °F 23% 29.72 in 10.0 mi North 19.6 mph 32.2 mph N/A   Clear
9:51 AM 75.2 °F 41.0 °F 29% 29.80 in 10.0 mi North 17.3 mph 28.8 mph N/A   Clear
10:51 AM 78.1 °F 39.0 °F 25% 29.76 in 10.0 mi North 21.9 mph 33.4 mph N/A   Clear
11:51 AM 80.1 °F 36.0 °F 20% 29.78 in 10.0 mi NNE 20.7 mph 27.6 mph N/A   Clear
12:51 PM 82.9 °F 33.1 °F 17% 29.78 in 10.0 mi NNW 19.6 mph 27.6 mph N/A   Clear
1:51 PM 84.9 °F 30.0 °F 14% 29.78 in 10.0 mi NNE 18.4 mph - N/A   Clear
2:51 PM 86.0 °F 28.9 °F 13% 29.77 in 10.0 mi NNE 16.1 mph 24.2 mph N/A   Clear
3:51 PM 86.0 °F 28.0 °F 12% 29.76 in 10.0 mi NNW 16.1 mph 29.9 mph N/A   Clear
4:51 PM 86.0 °F 28.0 °F 12% 29.76 in 10.0 mi North 16.1 mph 23.0 mph N/A   Clear
5:51 PM 84.9 °F 25.0 °F 11% 29.77 in 10.0 mi NNW 15.0 mph 26.5 mph N/A   Clear
6:51 PM 82.0 °F 25.0 °F 12% 29.78 in 10.0 mi North 12.7 mph 21.9 mph N/A   Partly Cloudy
7:51 PM 78.1 °F 24.1 °F 14% 29.81 in 10.0 mi NNW 15.0 mph - N/A   Partly Cloudy
8:51 PM 73.4 °F 24.8 °F 16% 29.89 in 10.0 mi North 6.9 mph - N/A   Partly Cloudy
9:51 PM 70.0 °F 25.0 °F 18% 29.88 in 10.0 mi NNW 8.1 mph - N/A   Clear
10:51 PM 69.1 °F 23.0 °F 18% 29.91 in 10.0 mi North 10.4 mph - N/A   Clear
11:51 PM 69.8 °F 23.0 °F 17% 29.98 in 10.0 mi North 12.7 mph - N/A   Mostly Cloudy